Temperature
23 22 22 23 28 30 30 30 30 30 29 28 28 28 28 28 28 26 23 22 21 20 20 20 20 19 19 19 19 19 19 19 19 19 19 19 18 18 18 18 18 18 18 18 18 18 18 18 18
22 22 22 26 30 30 29 30 29 29 29 28 27 27 28 27 25 23 22 21 21 20 20 20 20 19 19 19 19 19 19 19 19 19 19 18 18 18 18 18 18 18 18 18 18 18 18 18 18
22 22 26 30 30 30 29 30 29 29 28 28 28 27 27 26 24 23 22 21 20 20 19 20 20 19 19 19 19 19 19 19 19 18 18 18 18 18 18 18 18 18 18 18 18 18 18 18 18
22 25 28 30 30 30 30 30 29 29 28 28 28 28 26 23 23 22 21 21 20 20 19 19 20 19 19 19 19 19 19 19 18 18 18 18 18 18 18 18 18 18 18 18 18 18 18 18 18
24 28 30 30 30 30 30 29 29 29 29 28 28 28 26 23 22 22 21 21 20 20 19 19 20 19 19 19 19 19 19 18 18 18 18 18 18 18 18 18 18 18 18 18 18 18 18 18 18
27 29 30 29 29 30 30 29 29 29 29 28 28 28 25 22 22 22 21 21 20 20 19 19 19 19 19 19 19 18 18 18 18 18 18 18 18 18 18 17 17 18 18 18 18 18 18 18 18
28 30 30 30 29 29 29 29 29 29 29 28 27 27 25 23 22 21 21 21 20 20 19 19 18 19 19 19 18 18 18 18 18 18 18 18 18 17 17 17 17 17 17 17 18 18 18 18 18
27 30 30 30 29 29 29 28 28 28 28 27 27 27 26 23 22 21 21 20 20 19 19 19 18 18 18 18 18 18 18 18 18 18 18 17 17 17 17 17 17 17 17 17 17 17 17 17 17
27 29 29 30 29 29 29 29 28 27 27 26 26 26 25 23 22 21 21 20 20 19 19 19 18 18 18 18 18 18 18 18 18 17 17 17 17 17 17 17 17 17 17 17 17 17 17 17 17
28 29 30 30 30 30 29 28 28 28 28 27 26 24 23 22 22 21 21 21 20 19 19 18 18 18 18 18 17 18 17 17 17 17 17 17 17 17 17 17 17 17 17 17 17 17 17 17 17
29 29 29 29 28 28 28 28 27 28 28 27 26 24 23 22 22 22 22 21 20 19 19 19 18 18 18 18 17 17 17 17 17 17 17 17 17 17 17 17 17 17 17 17 17 17 17 17 17
29 29 28 28 27 28 28 28 28 27 27 26 25 24 23 22 22 22 21 21 20 19 19 18 18 18 18 18 17 17 17 17 17 17 17 17 17 17 16 17 17 17 17 17 16 17 17 17 17
28 28 27 27 27 27 27 27 27 27 26 25 25 24 23 23 22 21 21 20 20 19 19 18 18 18 18 18 17 17 17 17 17 17 17 17 17 16 16 16 16 17 16 16 16 17 16 17 17
28 28 28 27 27 27 28 28 27 26 25 25 24 24 23 23 22 21 20 20 19 19 19 18 18 18 18 18 18 17 17 17 17 17 17 17 17 16 16 16 16 16 16 16 16 16 16 16 17
27 28 28 28 28 28 28 28 28 26 25 25 24 24 23 23 22 21 20 19 19 19 19 19 18 18 18 18 18 17 17 17 17 17 17 17 16 16 16 16 16 16 16 16 16 16 16 16 16
28 28 28 28 28 27 27 28 28 26 25 25 25 24 23 22 22 21 20 19 19 19 18 19 18 18 18 18 18 17 17 17 17 16 16 16 16 16 16 16 16 16 16 16 16 16 16 16 16
28 28 28 28 28 28 28 28 27 26 26 25 25 24 23 22 21 21 20 19 19 19 18 19 18 18 18 18 18 17 17 17 17 16 16 16 16 16 16 16 16 16 16 16 16 16 16 16 16
28 28 28 28 28 27 27 27 27 26 26 26 25 24 24 23 21 20 19 19 18 18 18 18 18 18 18 17 17 17 16 16 16 16 16 16 16 16 16 16 16 16 16 15 15 15 15 15 16
28 28 28 28 28 27 27 27 27 26 26 26 25 24 24 22 21 20 19 18 18 18 18 18 18 18 18 17 17 17 17 16 16 16 16 16 16 16 16 16 16 16 15 15 15 15 15 15 15
27 27 27 27 27 27 26 26 27 26 26 25 24 24 23 22 21 20 19 18 18 18 18 18 18 18 18 17 17 17 16 16 16 16 16 16 16 16 16 16 15 15 15 15 15 15 15 15 15
27 27 27 27 27 27 26 26 26 26 25 24 24 23 23 22 21 20 19 18 18 17 17 17 17 17 17 17 17 16 16 16 16 16 16 16 16 16 16 15 15 15 15 15 15 15 15 15 15
27 28 27 27 26 27 27 26 27 26 26 25 24 23 22 21 21 20 19 18 18 17 17 17 17 17 17 17 16 16 16 16 16 16 15 16 16 15 15 15 15 15 15 15 15 15 15 15 15
27 27 27 27 26 26 27 26 27 26 26 25 24 23 22 21 20 20 19 18 18 17 17 16 16 17 17 17 16 16 16 16 16 15 15 15 15 15 15 15 15 15 15 15 15 15 15 15 15
27 26 26 26 27 25 26 26 27 27 26 26 25 23 21 21 20 19 18 18 18 17 17 16 16 16 16 16 16 16 16 15 15 15 15 15 15 15 15 15 15 15 15 15 15 15 15 15 15
26 26 25 25 25 26 27 26 26 26 26 25 24 23 21 20 20 19 18 18 17 17 17 16 16 16 16 16 16 16 16 16 15 15 15 15 15 15 15 15 15 15 15 15 15 15 15 14 14
26 26 25 25 25 26 26 26 27 25 24 24 23 22 20 20 19 19 18 18 17 17 16 16 16 16 16 16 16 16 16 15 15 15 15 15 15 15 15 15 15 15 14 14 14 14 14 14 14
26 26 27 26 26 25 26 26 25 24 24 23 22 21 20 19 19 18 18 17 17 17 16 16 16 16 16 16 16 16 15 15 15 15 15 15 15 15 15 14 14 14 14 14 14 14 14 14 14
27 27 26 26 24 24 25 26 26 24 24 23 22 21 20 19 18 18 17 17 17 16 16 16 15 15 16 16 15 15 15 15 15 15 15 15 15 15 15 15 14 14 14 14 14 14 14 14 14
25 26 26 26 26 25 25 26 26 25 24 23 22 21 20 19 18 18 17 17 16 16 16 15 15 15 15 15 15 15 15 15 15 15 15 15 15 15 14 14 14 14 14 14 14 14 14 14 14
26 26 26 25 25 25 25 25 24 24 24 23 22 20 19 19 18 17 17 16 16 16 16 16 15 15 15 15 15 15 15 15 15 15 14 14 14 14 14 14 14 14 14 14 14 14 14 14 14
Wind_Speed
9 7 6 5 5 2 5 5 4 4 4 4 3 2 4 5 5 5 5 8 9 11 13 14 12 11 10 10 11 10 10 9 9 9 9 9 8 8 8 8 8 9 10 11 11 10 10 10 10
6 5 6 5 4 3 5 5 5 6 4 2 3 2 3 5 6 6 7 9 10 11 12 13 12 11 10 10 10 10 10 9 9 9 8 8 8 8 8 8 8 8 9 10 10 9 9 9 9
6 6 5 4 1 2 5 5 5 4 3 2 3 2 3 5 5 5 7 11 11 10 11 13 12 11 10 10 10 9 9 8 8 8 8 8 8 8 8 8 8 9 9 10 9 9 8 8 8
5 5 5 4 2 4 4 4 3 3 3 2 2 4 5 5 3 6 10 11 11 11 11 13 12 10 10 9 9 9 9 8 7 7 7 8 8 8 8 8 8 8 9 9 9 9 8 8 8
6 5 5 4 3 4 3 3 2 2 3 3 2 4 6 5 6 9 11 11 10 10 10 13 11 9 9 9 8 8 9 8 7 6 7 7 7 7 7 7 8 8 8 8 8 8 7 7 7
5 5 5 4 5 3 3 2 1 2 3 3 2 3 5 6 7 9 10 10 9 9 9 12 11 9 8 8 8 7 8 7 6 6 6 6 7 7 7 7 8 8 7 7 7 7 6 6 6
6 5 5 4 4 4 2 1 1 2 2 3 2 3 5 6 7 9 9 9 9 8 8 10 11 10 9 8 7 7 7 7 6 5 6 6 6 7 7 7 7 7 7 6 6 6 6 6 6
5 5 6 5 4 3 3 2 1 1 3 3 1 1 3 6 9 9 9 8 8 7 7 8 8 9 9 9 8 7 6 6 6 5 6 6 7 7 7 8 7 7 6 6 6 7 6 6 6
5 7 6 5 4 2 3 2 2 1 2 2 1 2 4 9 11 10 9 8 8 7 6 6 7 7 7 8 9 8 7 7 7 7 7 7 7 7 8 6 7 6 6 5 5 6 6 6 8
6 7 4 2 1 1 2 1 1 2 3 2 2 3 6 10 11 10 9 9 9 8 7 7 7 7 7 6 7 7 7 7 6 5 6 6 4 4 5 8 8 7 6 7 6 6 7 8 7
6 6 3 2 2 2 3 2 1 3 3 1 1 4 7 9 9 9 9 9 9 9 8 7 7 6 6 5 5 4 4 5 5 5 6 5 5 5 5 5 7 7 8 6 7 7 4 4 3
6 5 4 3 3 4 4 3 3 3 3 2 1 4 7 9 9 9 8 8 8 8 8 7 7 6 6 5 4 4 4 4 4 4 5 5 3 3 3 3 4 5 4 4 4 4 3 3 3
9 6 5 5 5 5 4 5 4 3 2 1 2 4 6 8 8 7 7 7 7 8 8 7 6 6 6 5 4 4 4 4 4 4 5 4 3 3 3 3 3 4 4 4 4 3 3 3 4
5 6 6 6 7 6 6 5 5 3 2 3 4 4 6 6 7 7 7 6 6 6 7 7 6 6 6 5 4 4 4 4 4 4 4 4 3 3 3 3 3 3 3 3 3 3 3 3 3
6 7 7 8 8 7 7 8 7 3 4 4 4 4 5 5 6 6 7 6 6 6 6 7 7 6 6 6 5 5 4 4 3 3 4 4 4 3 3 3 3 3 3 4 3 3 3 3 3
9 10 9 6 6 5 8 8 4 4 5 5 4 4 5 5 5 5 5 6 6 6 6 6 6 6 6 5 5 4 3 3 3 3 4 5 4 5 4 3 3 3 4 3 3 3 3 3 2
11 11 9 6 6 5 8 6 3 3 5 5 5 5 5 5 4 4 5 5 5 6 6 6 6 6 6 6 5 4 3 3 3 3 3 4 5 5 5 4 3 4 3 3 3 3 3 3 2
10 10 8 7 5 7 7 7 4 4 5 6 5 5 5 4 4 4 4 5 5 5 5 5 6 6 5 5 4 3 3 3 3 3 3 4 4 5 5 4 4 5 4 4 3 3 2 2 3
8 9 8 6 4 6 8 8 6 5 6 6 5 5 5 4 3 3 4 4 5 5 5 5 5 6 5 4 4 3 3 3 3 3 3 4 4 4 4 4 5 5 4 4 4 3 4 3 2
10 11 9 6 5 6 7 9 7 7 7 5 5 5 5 5 4 3 4 4 5 5 5 5 5 6 6 4 4 3 3 2 2 2 2 3 3 4 4 4 4 5 4 5 5 4 3 3 3
13 12 10 7 5 7 8 10 10 8 7 6 5 5 5 5 5 4 4 5 5 5 5 5 5 5 6 5 4 3 2 2 2 2 2 2 3 4 4 4 4 4 4 5 5 5 5 4 3
13 10 10 9 9 8 8 9 8 9 8 7 6 6 5 5 5 4 5 5 5 5 5 5 5 5 5 6 5 5 4 3 3 3 2 2 2 3 4 4 4 4 4 4 5 4 4 4 3
10 7 9 10 10 10 10 10 6 8 9 8 7 6 6 5 5 4 4 5 5 5 5 5 6 6 6 6 6 5 4 3 3 3 3 3 3 3 3 4 4 4 4 4 4 4 4 3 3
8 7 8 9 10 12 11 10 7 6 7 7 6 6 6 5 5 4 4 4 4 4 5 5 6 6 6 6 6 5 4 4 4 3 3 3 3 3 3 4 4 5 4 4 5 4 5 3 2
13 11 8 9 10 9 6 8 6 2 3 5 6 6 5 5 5 5 5 4 4 5 5 5 6 6 6 6 6 5 5 4 4 3 3 3 3 3 3 3 4 4 4 4 3 4 4 4 4
15 15 10 8 8 6 6 8 3 3 3 4 5 5 5 5 5 5 5 4 4 5 5 5 5 5 6 6 5 5 4 3 3 4 3 4 3 3 3 3 3 3 3 3 3 3 3 3 3
14 15 12 10 10 8 7 6 4 5 5 6 6 6 5 5 5 5 4 4 4 5 4 4 5 5 5 5 6 5 4 3 3 3 3 3 3 3 4 4 4 4 3 3 3 3 3 3 3
13 12 10 10 9 10 8 9 6 8 7 7 6 6 6 6 5 5 4 4 4 4 5 5 5 5 5 5 5 5 5 4 3 3 3 3 3 3 4 4 4 4 4 4 3 3 3 3 2
12 14 12 11 10 9 8 5 2 5 7 7 6 6 6 7 6 6 5 5 5 5 5 5 5 5 5 5 5 5 4 4 4 3 3 3 3 3 4 4 4 4 4 4 4 3 3 3 3
13 14 14 12 10 11 10 4 4 3 5 6 6 6 6 6 6 6 6 6 6 6 5 5 5 5 5 6 6 5 5 4 4 3 3 3 3 3 3 4 4 4 4 3 4 3 3 3 3
Wind_Direction
192 199 220 236 237 194 91 78 55 55 56 50 54 44 36 29 18 57 99 135 138 141 140 149 150 147 146 144 141 138 135 132 131 130 128 126 126 122 117 117 123 127 130 128 124 122 121 121 119
194 204 231 243 255 147 95 72 60 45 51 74 105 84 54 64 57 93 122 136 143 142 144 147 146 148 147 145 143 141 139 136 134 132 133 132 130 128 125 121 119 125 129 128 126 125 123 121 118
206 228 254 248 263 70 88 70 56 59 83 103 110 88 49 62 84 111 127 145 146 142 143 139 147 148 147 146 144 144 143 138 134 131 131 133 130 130 132 125 122 121 122 125 127 127 125 124 123
221 223 234 236 158 76 68 66 53 83 108 101 111 106 87 65 78 114 133 148 147 147 149 141 149 148 148 149 149 148 147 142 138 134 131 131 130 128 131 131 132 124 121 124 123 123 123 125 127
238 245 223 198 154 102 78 55 51 92 106 105 115 100 98 87 99 123 141 151 152 150 148 143 149 148 149 152 153 150 148 145 142 140 136 135 132 131 133 135 136 130 126 128 126 123 123 123 127
228 238 226 194 153 131 104 80 102 107 104 106 116 108 98 110 125 138 147 154 153 150 146 141 148 152 155 155 154 152 150 148 145 143 142 140 140 142 142 138 136 134 132 136 139 136 135 133 136
250 241 230 209 168 152 98 97 107 90 98 87 87 97 110 128 133 143 147 151 149 148 146 147 155 160 161 158 155 151 151 150 147 146 149 147 148 150 150 142 138 135 136 143 150 147 146 147 148
262 243 219 208 201 156 114 124 99 53 79 86 122 101 117 136 144 145 145 149 147 147 150 154 161 164 170 166 159 158 158 157 153 156 162 167 167 166 167 166 148 147 148 146 157 160 163 156 154
245 238 218 201 202 158 136 166 126 118 128 128 96 45 103 141 151 151 150 153 152 153 160 163 165 170 176 169 160 171 173 170 175 175 178 194 188 178 180 157 150 160 163 164 164 167 175 178 169
229 235 214 193 213 181 157 172 167 198 184 166 137 100 128 151 161 165 166 164 165 167 172 171 174 174 179 171 164 181 184 177 198 189 188 196 185 190 184 150 163 172 178 185 182 184 192 207 180
224 238 220 210 233 239 216 215 237 241 235 257 224 164 158 165 174 177 178 173 172 174 178 179 177 179 180 176 176 179 187 182 197 194 196 195 191 189 191 178 173 179 188 193 185 196 198 197 187
222 227 236 229 227 238 244 243 242 259 290 310 239 168 168 177 185 185 181 178 175 177 181 182 183 183 189 187 182 187 189 191 197 184 199 192 193 194 190 196 186 189 184 189 198 195 185 202 196
219 221 215 220 222 237 243 241 255 259 271 243 168 165 178 184 187 187 184 179 179 183 184 182 184 185 188 194 201 193 200 200 194 193 192 204 198 195 193 193 199 207 188 190 199 197 193 208 203
216 222 223 227 230 229 233 236 237 240 195 175 172 175 179 184 183 181 182 183 186 189 190 182 187 185 189 191 197 201 206 204 206 196 189 201 207 199 205 201 204 207 196 191 198 192 204 215 207
217 220 222 221 224 225 233 233 231 213 188 184 183 178 176 180 182 186 186 189 188 191 191 188 188 191 194 195 199 203 206 203 207 193 187 198 206 200 220 210 208 200 185 178 193 194 205 210 204
216 224 224 198 207 211 230 235 187 178 190 192 189 181 179 182 190 187 188 191 188 190 188 193 192 188 190 193 196 205 206 198 203 197 192 198 205 206 220 218 211 192 192 184 182 201 203 199 202
214 226 227 192 193 211 229 244 173 192 203 202 198 193 190 185 192 186 185 183 183 187 184 188 190 186 186 182 185 195 194 202 200 197 198 199 211 212 218 215 197 196 195 189 195 183 206 197 196
220 228 225 220 187 215 230 243 215 209 215 213 211 206 196 191 188 176 171 169 173 176 176 182 182 179 180 174 172 179 191 196 191 192 195 202 211 211 217 205 189 199 194 188 179 176 190 206 203
242 239 233 225 197 228 237 248 243 217 220 219 216 207 195 188 168 161 167 166 164 167 169 175 175 167 170 166 175 178 191 194 180 182 181 195 202 202 209 202 183 201 192 185 180 186 182 199 192
234 235 232 216 201 238 243 249 243 229 223 219 215 205 197 193 178 166 169 168 169 169 171 174 177 170 173 172 177 177 186 193 179 174 167 194 199 201 194 189 193 194 185 182 185 194 204 199 200
229 235 236 232 221 231 241 244 226 211 215 210 214 211 199 198 191 182 176 170 169 171 176 179 176 171 172 164 158 145 157 179 165 174 176 189 192 192 186 184 193 195 197 182 187 197 200 199 197
231 230 236 232 237 239 231 260 220 206 208 209 209 205 199 198 195 187 178 175 176 177 175 172 171 169 168 165 167 170 178 180 177 186 180 167 179 185 182 187 187 198 196 181 191 187 195 195 197
231 222 226 233 242 254 236 253 235 197 215 210 203 199 199 198 194 188 184 178 178 174 168 168 166 169 167 169 171 179 181 176 171 171 162 174 175 183 187 187 183 191 195 185 194 187 198 198 203
206 201 216 230 239 243 238 246 247 209 217 206 195 193 194 192 188 182 177 177 176 168 166 166 161 163 163 168 169 173 172 166 157 161 167 178 174 177 185 188 186 189 187 183 191 193 193 198 198
203 208 217 221 224 237 211 237 246 185 206 206 194 187 185 184 181 176 176 177 175 165 164 164 159 159 161 162 162 163 169 172 170 179 184 185 176 177 184 190 188 185 177 174 183 190 196 193 191
209 218 229 239 241 236 202 237 218 149 174 187 185 176 174 180 179 178 178 175 169 163 161 155 157 158 160 160 156 156 167 176 176 186 195 189 185 176 163 172 177 173 168 171 176 181 184 184 185
216 223 239 256 259 256 232 224 201 176 184 182 181 177 176 177 175 177 175 171 165 159 155 151 152 151 155 155 151 151 159 162 151 155 183 176 160 157 160 170 171 167 169 175 172 172 176 174 180
228 223 227 238 243 248 240 235 228 185 190 186 188 186 178 169 167 172 170 166 161 152 148 144 144 147 150 147 151 145 147 150 145 141 137 137 149 153 161 169 167 166 167 167 169 166 166 172 178
206 214 223 235 243 251 254 238 156 182 187 186 182 177 174 175 169 166 166 160 155 152 149 146 141 141 141 142 139 134 139 144 146 142 138 135 138 145 152 155 154 154 156 161 163 170 167 176 182
219 220 220 228 236 246 260 249 104 149 166 173 169 161 160 163 162 160 158 151 151 151 151 147 144 141 140 140 139 137 138 141 142 133 127 130 132 134 140 148 149 150 152 157 163 168 171 183 191
Height
1507 1506 1507 1509 1501 1493 1496 1495 1494 1495 1496 1499 1500 1500 1499 1500 1503 1511 1513 1512 1513 1514 1514 1515 1516 1517 1519 1520 1521 1522 1523 1523 1524 1524 1525 1525 1526 1527 1527 1528 1529 1529 1530 1531 1531 1532 1533 1534 1535
1508 1508 1509 1505 1493 1498 1499 1495 1496 1497 1500 1501 1502 1503 1502 1504 1508 1511 1512 1513 1514 1515 1515 1516 1517 1518 1520 1521 1522 1523 1524 1524 1525 1525 1526 1526 1527 1527 1528 1529 1529 1530 1531 1532 1533 1534 1534 1535 1536
1508 1508 1508 1496 1493 1496 1499 1496 1497 1499 1501 1501 1502 1503 1505 1507 1511 1512 1513 1513 1515 1516 1517 1517 1518 1519 1521 1522 1523 1524 1525 1525 1526 1526 1527 1527 1528 1528 1528 1529 1530 1531 1532 1533 1534 1535 1536 1537 1537
1509 1509 1504 1496 1496 1494 1495 1497 1499 1499 1501 1502 1502 1504 1508 1511 1512 1513 1513 1514 1516 1517 1518 1518 1519 1520 1521 1523 1524 1525 1525 1526 1527 1527 1528 1528 1528 1529 1529 1530 1531 1532 1533 1534 1535 1536 1537 1538 1539
1509 1504 1496 1496 1495 1495 1497 1499 1500 1499 1500 1502 1503 1504 1508 1512 1512 1513 1513 1515 1517 1518 1519 1519 1520 1521 1522 1523 1524 1525 1526 1527 1527 1528 1528 1529 1529 1530 1530 1531 1532 1533 1534 1535 1536 1537 1538 1539 1540
1507 1499 1496 1498 1496 1496 1497 1500 1500 1499 1500 1502 1503 1504 1509 1512 1513 1514 1515 1516 1518 1519 1520 1519 1520 1521 1523 1524 1525 1526 1526 1527 1528 1528 1529 1529 1530 1531 1531 1532 1533 1534 1535 1536 1537 1538 1539 1540 1541
1503 1495 1494 1494 1496 1496 1498 1500 1500 1499 1500 1503 1504 1505 1509 1512 1513 1514 1515 1517 1518 1519 1520 1521 1521 1522 1523 1524 1525 1526 1527 1527 1528 1529 1529 1530 1530 1531 1532 1533 1534 1535 1536 1537 1538 1539 1540 1541 1542
1503 1496 1494 1494 1496 1496 1499 1500 1501 1501 1502 1506 1506 1505 1508 1512 1513 1514 1515 1517 1518 1519 1520 1521 1522 1523 1524 1525 1525 1526 1527 1528 1528 1529 1530 1530 1531 1531 1532 1533 1534 1535 1536 1537 1538 1539 1540 1541 1542
1504 1497 1495 1493 1494 1495 1498 1500 1502 1503 1504 1506 1506 1507 1509 1510 1512 1513 1514 1516 1517 1518 1520 1521 1522 1523 1525 1526 1525 1526 1527 1527 1528 1529 1529 1530 1532 1533 1533 1534 1535 1536 1537 1538 1538 1539 1540 1541 1542
1500 1494 1492 1492 1493 1495 1498 1499 1501 1502 1502 1504 1506 1508 1508 1509 1511 1512 1513 1514 1516 1517 1519 1520 1522 1523 1524 1525 1525 1526 1527 1527 1528 1529 1529 1530 1531 1532 1533 1533 1534 1535 1536 1537 1538 1539 1540 1541 1543
1496 1493 1492 1495 1497 1498 1498 1500 1501 1500 1499 1502 1504 1507 1508 1509 1510 1511 1512 1513 1514 1516 1518 1519 1520 1521 1523 1524 1525 1526 1527 1527 1528 1528 1528 1529 1531 1532 1533 1534 1535 1535 1536 1537 1538 1539 1541 1542 1542
1496 1495 1496 1497 1498 1499 1498 1499 1500 1500 1502 1503 1504 1506 1506 1508 1509 1510 1512 1513 1514 1515 1517 1518 1519 1520 1521 1523 1524 1525 1526 1526 1527 1527 1528 1529 1530 1531 1532 1533 1534 1535 1536 1536 1537 1539 1540 1541 1542
1495 1495 1497 1498 1499 1499 1499 1499 1499 1501 1502 1503 1504 1505 1505 1506 1508 1510 1511 1512 1514 1515 1516 1517 1518 1518 1519 1521 1522 1524 1525 1526 1526 1527 1527 1528 1530 1530 1531 1532 1532 1534 1535 1536 1536 1538 1539 1540 1541
1493 1494 1495 1496 1496 1497 1497 1497 1499 1499 1501 1502 1503 1504 1505 1506 1508 1509 1510 1511 1512 1513 1515 1516 1517 1518 1518 1520 1521 1522 1523 1524 1525 1526 1527 1527 1529 1529 1530 1530 1531 1532 1533 1535 1535 1536 1537 1539 1540
1495 1494 1493 1493 1493 1494 1495 1495 1495 1497 1500 1501 1501 1502 1504 1505 1507 1508 1509 1510 1511 1512 1513 1514 1515 1516 1517 1518 1520 1521 1522 1523 1524 1524 1525 1526 1527 1528 1529 1529 1530 1531 1532 1533 1534 1535 1536 1538 1539
1491 1490 1490 1488 1491 1493 1496 1493 1492 1496 1498 1499 1500 1501 1503 1504 1506 1507 1508 1509 1510 1511 1512 1513 1514 1515 1516 1517 1518 1520 1521 1521 1522 1523 1523 1524 1525 1526 1527 1528 1529 1529 1531 1532 1533 1534 1536 1536 1537
1487 1487 1485 1487 1488 1490 1490 1489 1491 1495 1496 1497 1498 1499 1501 1503 1504 1505 1506 1507 1508 1509 1509 1510 1512 1513 1514 1515 1516 1518 1518 1519 1520 1521 1522 1522 1523 1524 1525 1526 1527 1528 1529 1531 1532 1533 1534 1535 1536
1484 1482 1484 1485 1485 1488 1488 1488 1489 1493 1494 1494 1496 1497 1499 1501 1503 1503 1504 1505 1505 1506 1507 1508 1510 1511 1512 1513 1514 1516 1517 1518 1518 1519 1520 1520 1521 1522 1523 1524 1525 1527 1528 1529 1530 1531 1532 1534 1535
1478 1481 1484 1483 1484 1487 1487 1487 1487 1490 1492 1492 1494 1495 1497 1499 1501 1502 1502 1503 1503 1504 1505 1506 1508 1509 1510 1511 1513 1514 1515 1516 1517 1518 1518 1519 1520 1521 1521 1523 1524 1525 1526 1527 1528 1530 1531 1532 1533
1480 1483 1482 1482 1484 1486 1487 1486 1485 1487 1489 1491 1492 1494 1496 1498 1499 1500 1501 1501 1502 1502 1503 1504 1505 1507 1508 1509 1511 1512 1514 1515 1516 1517 1517 1518 1518 1519 1520 1521 1523 1524 1525 1525 1527 1528 1530 1531 1532
1480 1481 1480 1483 1483 1484 1486 1486 1482 1484 1487 1489 1491 1492 1494 1496 1498 1499 1499 1500 1500 1501 1501 1503 1504 1505 1507 1508 1510 1512 1513 1514 1514 1515 1516 1516 1517 1518 1519 1520 1522 1522 1524 1525 1526 1527 1528 1529 1531
1479 1474 1478 1481 1485 1482 1483 1487 1477 1478 1482 1485 1488 1490 1492 1494 1496 1497 1498 1498 1499 1499 1500 1501 1502 1503 1505 1507 1508 1510 1511 1512 1513 1514 1515 1515 1516 1517 1518 1519 1520 1521 1523 1523 1525 1526 1527 1528 1530
1473 1473 1476 1478 1480 1482 1480 1484 1474 1474 1478 1480 1484 1488 1490 1492 1494 1495 1496 1497 1497 1498 1499 1499 1500 1502 1503 1505 1507 1508 1509 1510 1512 1512 1513 1514 1514 1515 1516 1518 1519 1520 1521 1522 1523 1525 1526 1527 1529
1473 1476 1477 1477 1477 1488 1478 1482 1476 1469 1472 1476 1481 1485 1489 1491 1492 1494 1495 1496 1496 1497 1498 1499 1499 1500 1502 1504 1505 1507 1508 1509 1510 1511 1512 1513 1514 1514 1515 1517 1517 1519 1520 1521 1522 1524 1525 1526 1527
1473 1478 1487 1489 1486 1481 1470 1478 1473 1468 1471 1475 1479 1483 1487 1489 1491 1492 1493 1494 1495 1496 1497 1497 1498 1499 1501 1502 1504 1505 1507 1508 1509 1510 1511 1512 1513 1514 1514 1516 1516 1518 1519 1520 1521 1523 1524 1525 1526
1468 1470 1482 1489 1484 1473 1473 1475 1466 1468 1473 1476 1479 1483 1486 1488 1490 1491 1492 1493 1494 1495 1496 1496 1497 1499 1500 1502 1503 1505 1506 1508 1508 1509 1510 1511 1512 1513 1514 1514 1515 1517 1518 1519 1520 1522 1523 1524 1525
1465 1465 1461 1469 1470 1476 1470 1466 1467 1470 1473 1476 1479 1482 1484 1486 1488 1490 1491 1492 1493 1494 1495 1496 1497 1498 1500 1502 1503 1504 1505 1507 1508 1508 1509 1510 1511 1512 1513 1514 1515 1516 1517 1518 1519 1521 1522 1523 1524
1458 1459 1464 1470 1481 1483 1471 1468 1464 1468 1470 1473 1477 1480 1483 1485 1487 1489 1490 1491 1492 1493 1494 1495 1497 1498 1500 1501 1503 1504 1505 1506 1507 1508 1508 1509 1510 1511 1512 1513 1514 1515 1516 1518 1519 1520 1521 1522 1523
1460 1462 1462 1463 1463 1474 1477 1468 1456 1462 1467 1471 1475 1478 1481 1484 1486 1488 1489 1490 1491 1493 1494 1495 1497 1498 1500 1501 1503 1504 1505 1506 1507 1508 1509 1509 1510 1510 1512 1513 1514 1515 1516 1517 1518 1520 1520 1521 1522
1452 1454 1458 1468 1468 1465 1467 1467 1459 1462 1466 1471 1474 1478 1481 1483 1485 1487 1488 1490 1491 1492 1494 1495 1497 1498 1499 1501 1502 1504 1505 1506 1507 1508 1509 1509 1510 1510 1511 1512 1513 1514 1515 1516 1518 1519 1520 1521 1521